Location: Bieujac
(44.5398°N, 0.1549°W)
Time: 04:39:49
(UTC+00:00)

NOSS 3-3 (A) - Pass Details

Date: 21 February 2020
Orbit: 833 x 1379 km, 63.4° (Epoch: 03 April)

Event Time Altitude Azimuth Distance (km) Brightness Sun altitude
Rises 04:27:00 0° 174° (S) 3,395 6.8 -26.6°
Reaches altitude 10° 04:29:50 10° 160° (SSE) 2,503 6.2 -26.1°
Maximum altitude 04:34:17 23° 109° (ESE) 1,821 6.0 -25.3°
Drops below altitude 10° 04:39:05 10° 59° (ENE) 2,724 7.2 -24.4°
Sets 04:42:18 0° 47° (NE) 3,771 7.9 -23.9°
